Time,TemperatureF,DewpointF,PressureIn,WindDirection,WindDirectionDegrees,WindSpeedMPH,WindSpeedGustMPH,Humidity,HourlyPrecipIn,Conditions,Clouds,dailyrainin,SoftwareType,DateUTC
2013-01-29 00:01:00,41.0,34.0,30.18,NNE,18,0.0,1.0,75,0.00,,,0.00,,2013-01-29 08:01:00,
2013-01-29 00:11:00,41.0,34.0,30.18,NNE,18,0.0,1.0,75,0.00,,,0.00,,2013-01-29 08:11:00,
2013-01-29 00:21:00,40.0,33.0,30.18,NNE,19,0.0,2.0,76,0.00,,,0.00,,2013-01-29 08:21:00,
2013-01-29 00:31:00,40.0,33.0,30.18,NNE,19,0.0,1.0,76,0.00,,,0.00,,2013-01-29 08:31:00,
2013-01-29 00:41:00,40.0,33.0,30.18,NNE,19,0.0,1.0,76,0.00,,,0.00,,2013-01-29 08:41:00,
2013-01-29 00:52:00,40.0,33.0,30.19,NNE,19,0.0,1.0,77,0.00,,,0.00,,2013-01-29 08:52:00,
2013-01-29 01:01:00,39.0,32.0,30.19,NNE,19,0.0,0.0,77,0.00,,,0.00,,2013-01-29 09:01:00,
2013-01-29 01:11:00,39.0,32.0,30.19,NNE,19,0.0,0.0,77,0.00,,,0.00,,2013-01-29 09:11:00,
2013-01-29 01:21:00,39.0,32.0,30.19,NNE,19,0.0,0.0,77,0.00,,,0.00,,2013-01-29 09:21:00,
2013-01-29 01:31:00,38.0,32.0,30.19,NNE,19,0.0,0.0,80,0.00,,,0.00,,2013-01-29 09:31:00,
2013-01-29 01:42:00,38.0,32.0,30.19,NNE,19,0.0,0.0,80,0.00,,,0.00,,2013-01-29 09:42:00,
2013-01-29 01:52:00,38.0,32.0,30.19,NNE,19,0.0,2.0,80,0.00,,,0.00,,2013-01-29 09:52:00,
2013-01-29 02:01:00,38.0,32.0,30.19,NNE,19,0.0,0.0,80,0.00,,,0.00,,2013-01-29 10:01:00,
2013-01-29 02:11:00,38.0,32.0,30.19,NNE,19,0.0,0.0,80,0.00,,,0.00,,2013-01-29 10:11:00,
2013-01-29 02:21:00,38.0,32.0,30.19,NNE,19,0.0,1.0,80,0.00,,,0.00,,2013-01-29 10:21:00,
2013-01-29 02:32:00,38.0,32.0,30.19,NNE,19,0.0,0.0,80,0.00,,,0.00,,2013-01-29 10:32:00,
2013-01-29 02:41:00,38.0,32.0,30.19,NNE,19,0.0,0.0,80,0.00,,,0.00,,2013-01-29 10:41:00,
2013-01-29 02:52:00,38.0,33.0,30.19,NNE,19,0.0,0.0,81,0.00,,,0.00,,2013-01-29 10:52:00,
2013-01-29 03:01:00,37.0,32.0,30.19,NNE,19,0.0,0.0,83,0.00,,,0.00,,2013-01-29 11:01:00,
2013-01-29 03:11:00,37.0,32.0,30.19,NNE,19,0.0,0.0,83,0.00,,,0.00,,2013-01-29 11:11:00,
2013-01-29 03:21:00,37.0,32.0,30.19,NNE,19,0.0,0.0,82,0.00,,,0.00,,2013-01-29 11:21:00,
2013-01-29 03:31:00,37.0,32.0,30.19,NNE,19,0.0,0.0,83,0.00,,,0.00,,2013-01-29 11:31:00,
2013-01-29 03:41:00,37.0,32.0,30.19,NNE,19,0.0,0.0,83,0.00,,,0.00,,2013-01-29 11:41:00,
2013-01-29 03:52:00,38.0,33.0,30.19,NNE,19,0.0,0.0,83,0.00,,,0.00,,2013-01-29 11:52:00,
2013-01-29 04:02:00,38.0,33.0,30.19,NNE,19,0.0,0.0,82,0.00,,,0.00,,2013-01-29 12:02:00,
2013-01-29 04:12:00,38.0,33.0,30.19,NNE,19,0.0,0.0,82,0.00,,,0.00,,2013-01-29 12:12:00,
2013-01-29 04:21:00,37.0,32.0,30.19,NNE,19,0.0,0.0,83,0.00,,,0.00,,2013-01-29 12:21:00,
2013-01-29 04:32:00,37.0,32.0,30.19,NNE,19,0.0,0.0,83,0.00,,,0.00,,2013-01-29 12:32:00,
2013-01-29 04:42:00,37.0,32.0,30.19,NNE,19,0.0,0.0,83,0.00,,,0.00,,2013-01-29 12:42:00,
2013-01-29 04:52:00,37.0,32.0,30.19,NNE,19,0.0,0.0,83,0.00,,,0.00,,2013-01-29 12:52:00,
2013-01-29 05:01:00,37.0,33.0,30.19,NNE,19,0.0,0.0,84,0.00,,,0.00,,2013-01-29 13:01:00,
2013-01-29 05:11:00,37.0,33.0,30.19,NNE,19,0.0,0.0,84,0.00,,,0.00,,2013-01-29 13:11:00,
2013-01-29 05:22:00,37.0,33.0,30.18,NNE,19,0.0,0.0,84,0.00,,,0.00,,2013-01-29 13:22:00,
2013-01-29 05:31:00,37.0,33.0,30.18,NNE,19,0.0,0.0,84,0.00,,,0.00,,2013-01-29 13:31:00,
2013-01-29 05:42:00,37.0,33.0,30.18,NNE,19,0.0,0.0,84,0.00,,,0.00,,2013-01-29 13:42:00,
2013-01-29 05:52:00,37.0,33.0,30.19,NNE,19,0.0,1.0,84,0.00,,,0.00,,2013-01-29 13:52:00,
2013-01-29 06:01:00,37.0,33.0,30.19,NNE,19,0.0,0.0,84,0.00,,,0.00,,2013-01-29 14:01:00,
2013-01-29 06:11:00,37.0,33.0,30.19,NNE,19,0.0,2.0,84,0.00,,,0.00,,2013-01-29 14:11:00,
2013-01-29 06:21:00,37.0,33.0,30.19,NNE,19,0.0,2.0,84,0.00,,,0.00,,2013-01-29 14:21:00,
2013-01-29 06:32:00,37.0,33.0,30.19,NNE,19,0.0,2.0,84,0.00,,,0.00,,2013-01-29 14:32:00,
2013-01-29 06:42:00,37.0,33.0,30.19,NNE,19,0.0,2.0,84,0.00,,,0.00,,2013-01-29 14:42:00,
2013-01-29 06:52:00,38.0,33.0,30.19,NNE,22,0.0,0.0,83,0.00,,,0.00,,2013-01-29 14:52:00,
2013-01-29 07:01:00,39.0,34.0,30.20,NE,45,0.0,3.0,83,0.00,,,0.00,,2013-01-29 15:01:00,
2013-01-29 07:11:00,39.0,34.0,30.20,NE,45,0.0,3.0,83,0.00,,,0.00,,2013-01-29 15:11:00,
2013-01-29 07:21:00,41.0,35.0,30.20,NE,51,0.0,1.0,78,0.00,,,0.00,,2013-01-29 15:21:00,
2013-01-29 07:32:00,41.0,34.0,30.20,NE,49,0.0,2.0,77,0.00,,,0.00,,2013-01-29 15:32:00,
2013-01-29 07:42:00,41.0,34.0,30.20,NE,49,0.0,2.0,77,0.00,,,0.00,,2013-01-29 15:42:00,
2013-01-29 07:53:00,40.0,34.0,30.20,NE,51,0.0,1.0,78,0.00,,,0.00,,2013-01-29 15:53:00,
2013-01-29 08:01:00,41.0,35.0,30.21,NE,51,0.0,2.0,78,0.00,,,0.00,,2013-01-29 16:01:00,
2013-01-29 08:12:00,41.0,35.0,30.21,NE,51,0.0,2.0,78,0.00,,,0.00,,2013-01-29 16:12:00,
2013-01-29 08:21:00,42.0,36.0,30.21,NE,51,0.0,1.0,78,0.00,,,0.00,,2013-01-29 16:21:00,
2013-01-29 08:31:00,43.0,36.0,30.21,NE,52,0.0,3.0,76,0.00,,,0.00,,2013-01-29 16:31:00,
2013-01-29 08:42:00,43.0,36.0,30.21,NE,52,0.0,3.0,76,0.00,,,0.00,,2013-01-29 16:42:00,
2013-01-29 08:53:00,45.0,37.0,30.21,NE,52,0.0,0.0,74,0.00,,,0.00,,2013-01-29 16:53:00,
2013-01-29 09:02:00,45.0,38.0,30.22,NE,52,0.0,2.0,75,0.00,,,0.00,,2013-01-29 17:02:00,
2013-01-29 09:11:00,45.0,38.0,30.22,NE,52,0.0,2.0,75,0.00,,,0.00,,2013-01-29 17:11:00,
2013-01-29 09:21:00,46.0,38.0,30.21,NE,53,0.0,3.0,73,0.00,,,0.00,,2013-01-29 17:21:00,
2013-01-29 09:31:00,47.0,37.0,30.22,NE,53,0.0,3.0,68,0.00,,,0.00,,2013-01-29 17:31:00,
2013-01-29 09:41:00,47.0,37.0,30.22,NE,53,0.0,3.0,68,0.00,,,0.00,,2013-01-29 17:41:00,
2013-01-29 09:52:00,49.0,39.0,30.21,NE,53,0.0,2.0,67,0.00,,,0.00,,2013-01-29 17:52:00,
2013-01-29 10:02:00,51.0,38.0,30.21,NE,53,0.0,1.0,62,0.00,,,0.00,,2013-01-29 18:02:00,
2013-01-29 10:12:00,51.0,38.0,30.21,NE,53,0.0,1.0,62,0.00,,,0.00,,2013-01-29 18:12:00,
2013-01-29 10:21:00,53.0,39.0,30.21,NE,53,0.0,1.0,58,0.00,,,0.00,,2013-01-29 18:21:00,
2013-01-29 10:33:00,54.0,38.0,30.21,NE,53,0.0,3.0,55,0.00,,,0.00,,2013-01-29 18:33:00,
2013-01-29 10:42:00,54.0,38.0,30.21,NE,53,0.0,3.0,55,0.00,,,0.00,,2013-01-29 18:42:00,
2013-01-29 10:52:00,55.0,39.0,30.21,NE,53,0.0,1.0,54,0.00,,,0.00,,2013-01-29 18:52:00,
2013-01-29 11:01:00,56.0,38.0,30.20,NE,53,0.0,1.0,51,0.00,,,0.00,,2013-01-29 19:01:00,
2013-01-29 11:11:00,56.0,38.0,30.20,NE,53,0.0,1.0,51,0.00,,,0.00,,2013-01-29 19:11:00,
2013-01-29 11:22:00,58.0,37.0,30.20,NE,53,0.0,0.0,46,0.00,,,0.00,,2013-01-29 19:22:00,
2013-01-29 11:31:00,60.0,36.0,30.19,NE,53,0.0,3.0,40,0.00,,,0.00,,2013-01-29 19:31:00,
2013-01-29 11:41:00,60.0,36.0,30.19,NE,53,0.0,3.0,40,0.00,,,0.00,,2013-01-29 19:41:00,
2013-01-29 11:52:00,60.0,34.0,30.18,NE,51,0.0,3.0,38,0.00,,,0.00,,2013-01-29 19:52:00,
2013-01-29 12:01:00,61.0,35.0,30.17,NW,307,0.0,3.0,37,0.00,,,0.00,,2013-01-29 20:01:00,
2013-01-29 12:11:00,61.0,35.0,30.17,NW,307,0.0,3.0,37,0.00,,,0.00,,2013-01-29 20:11:00,
2013-01-29 12:21:00,62.0,35.0,30.17,West,264,1.0,5.0,37,0.00,,,0.00,,2013-01-29 20:21:00,
2013-01-29 12:32:00,63.0,33.0,30.16,WNW,282,0.0,6.0,32,0.00,,,0.00,,2013-01-29 20:32:00,
2013-01-29 12:41:00,63.0,33.0,30.16,WNW,282,0.0,6.0,32,0.00,,,0.00,,2013-01-29 20:41:00,
2013-01-29 12:53:00,61.0,35.0,30.16,WSW,237,2.0,7.0,37,0.00,,,0.00,,2013-01-29 20:53:00,
2013-01-29 13:01:00,62.0,36.0,30.15,SSW,213,1.0,5.0,38,0.00,,,0.00,,2013-01-29 21:01:00,
2013-01-29 13:11:00,62.0,36.0,30.15,SSW,213,1.0,5.0,38,0.00,,,0.00,,2013-01-29 21:11:00,
2013-01-29 13:21:00,62.0,35.0,30.15,WSW,242,3.0,7.0,37,0.00,,,0.00,,2013-01-29 21:21:00,
2013-01-29 13:32:00,61.0,35.0,30.14,South,182,2.0,7.0,38,0.00,,,0.00,,2013-01-29 21:32:00,
2013-01-29 13:41:00,61.0,35.0,30.14,South,182,2.0,7.0,38,0.00,,,0.00,,2013-01-29 21:41:00,
2013-01-29 13:52:00,62.0,35.0,30.14,SW,227,3.0,7.0,36,0.00,,,0.00,,2013-01-29 21:52:00,
2013-01-29 14:01:00,62.0,35.0,30.14,SW,221,2.0,7.0,37,0.00,,,0.00,,2013-01-29 22:01:00,
2013-01-29 14:11:00,62.0,35.0,30.14,SW,221,2.0,7.0,37,0.00,,,0.00,,2013-01-29 22:11:00,
2013-01-29 14:21:00,63.0,36.0,30.14,West,268,1.0,6.0,36,0.00,,,0.00,,2013-01-29 22:21:00,
2013-01-29 14:32:00,62.0,36.0,30.13,South,190,3.0,7.0,38,0.00,,,0.00,,2013-01-29 22:32:00,
2013-01-29 14:42:00,62.0,36.0,30.13,South,190,3.0,7.0,38,0.00,,,0.00,,2013-01-29 22:42:00,
2013-01-29 14:53:00,61.0,36.0,30.13,SW,221,1.0,8.0,39,0.00,,,0.00,,2013-01-29 22:53:00,
2013-01-29 15:01:00,61.0,37.0,30.13,WSW,244,2.0,7.0,41,0.00,,,0.00,,2013-01-29 23:01:00,
2013-01-29 15:11:00,61.0,37.0,30.13,WSW,244,2.0,7.0,41,0.00,,,0.00,,2013-01-29 23:11:00,
2013-01-29 15:22:00,62.0,37.0,30.14,WNW,286,1.0,5.0,40,0.00,,,0.00,,2013-01-29 23:22:00,
2013-01-29 15:32:00,61.0,36.0,30.14,SSW,213,0.0,6.0,40,0.00,,,0.00,,2013-01-29 23:32:00,
2013-01-29 15:41:00,61.0,36.0,30.14,SSW,213,0.0,6.0,40,0.00,,,0.00,,2013-01-29 23:41:00,
2013-01-29 15:53:00,61.0,36.0,30.13,SSW,194,2.0,6.0,39,0.00,,,0.00,,2013-01-29 23:53:00,
2013-01-29 16:01:00,61.0,36.0,30.13,West,271,0.0,4.0,40,0.00,,,0.00,,2013-01-30 00:01:00,
2013-01-29 16:11:00,61.0,36.0,30.13,West,271,0.0,4.0,40,0.00,,,0.00,,2013-01-30 00:11:00,
2013-01-29 16:21:00,61.0,36.0,30.13,SW,219,1.0,4.0,39,0.00,,,0.00,,2013-01-30 00:21:00,
2013-01-29 16:32:00,60.0,36.0,30.13,WSW,242,0.0,4.0,41,0.00,,,0.00,,2013-01-30 00:32:00,
2013-01-29 16:42:00,60.0,36.0,30.13,WSW,242,0.0,4.0,41,0.00,,,0.00,,2013-01-30 00:42:00,
2013-01-29 16:52:00,60.0,37.0,30.13,WSW,243,0.0,4.0,43,0.00,,,0.00,,2013-01-30 00:52:00,
2013-01-29 17:01:00,60.0,41.0,30.13,WSW,243,0.0,2.0,49,0.00,,,0.00,,2013-01-30 01:01:00,
2013-01-29 17:11:00,60.0,41.0,30.13,WSW,243,0.0,2.0,49,0.00,,,0.00,,2013-01-30 01:11:00,
2013-01-29 17:22:00,58.0,41.0,30.14,WSW,243,0.0,0.0,54,0.00,,,0.00,,2013-01-30 01:22:00,
2013-01-29 17:31:00,56.0,41.0,30.14,WSW,243,0.0,1.0,58,0.00,,,0.00,,2013-01-30 01:31:00,
2013-01-29 17:42:00,56.0,41.0,30.14,WSW,243,0.0,1.0,58,0.00,,,0.00,,2013-01-30 01:42:00,
2013-01-29 17:52:00,54.0,42.0,30.15,WSW,243,0.0,0.0,64,0.00,,,0.00,,2013-01-30 01:52:00,
2013-01-29 18:01:00,52.0,41.0,30.15,WSW,243,0.0,2.0,65,0.00,,,0.00,,2013-01-30 02:01:00,
2013-01-29 18:11:00,52.0,41.0,30.15,WSW,243,0.0,2.0,65,0.00,,,0.00,,2013-01-30 02:11:00,
2013-01-29 18:21:00,51.0,41.0,30.16,WSW,243,0.0,1.0,68,0.00,,,0.00,,2013-01-30 02:21:00,
2013-01-29 18:32:00,50.0,41.0,30.16,WSW,243,0.0,0.0,70,0.00,,,0.00,,2013-01-30 02:32:00,
2013-01-29 18:41:00,50.0,41.0,30.16,WSW,243,0.0,0.0,70,0.00,,,0.00,,2013-01-30 02:41:00,
2013-01-29 18:53:00,49.0,40.0,30.17,WSW,244,0.0,1.0,72,0.00,,,0.00,,2013-01-30 02:53:00,
2013-01-29 19:02:00,48.0,40.0,30.17,WSW,244,0.0,0.0,73,0.00,,,0.00,,2013-01-30 03:02:00,
2013-01-29 19:11:00,48.0,40.0,30.17,WSW,244,0.0,0.0,73,0.00,,,0.00,,2013-01-30 03:11:00,
2013-01-29 19:21:00,47.0,40.0,30.18,WSW,243,0.0,1.0,77,0.00,,,0.00,,2013-01-30 03:21:00,
2013-01-29 19:31:00,46.0,39.0,30.18,WSW,244,0.0,0.0,76,0.00,,,0.00,,2013-01-30 03:31:00,
2013-01-29 19:41:00,46.0,39.0,30.18,WSW,244,0.0,0.0,76,0.00,,,0.00,,2013-01-30 03:41:00,
2013-01-29 19:52:00,46.0,40.0,30.18,WSW,244,0.0,0.0,78,0.00,,,0.00,,2013-01-30 03:52:00,
2013-01-29 20:01:00,46.0,41.0,30.18,WSW,244,0.0,0.0,81,0.00,,,0.00,,2013-01-30 04:01:00,
2013-01-29 20:11:00,46.0,41.0,30.18,WSW,244,0.0,0.0,81,0.00,,,0.00,,2013-01-30 04:11:00,
2013-01-29 20:21:00,45.0,39.0,30.18,WSW,244,0.0,0.0,80,0.00,,,0.00,,2013-01-30 04:21:00,
2013-01-29 20:31:00,45.0,40.0,30.18,WSW,244,0.0,0.0,82,0.00,,,0.00,,2013-01-30 04:31:00,
2013-01-29 20:41:00,45.0,40.0,30.18,WSW,244,0.0,0.0,82,0.00,,,0.00,,2013-01-30 04:41:00,
2013-01-29 20:52:00,44.0,39.0,30.19,WSW,244,0.0,0.0,82,0.00,,,0.00,,2013-01-30 04:52:00,
2013-01-29 21:03:00,44.0,39.0,30.19,WSW,244,0.0,0.0,84,0.00,,,0.00,,2013-01-30 05:03:00,
2013-01-29 21:11:00,44.0,39.0,30.19,WSW,244,0.0,0.0,83,0.00,,,0.00,,2013-01-30 05:11:00,
2013-01-29 21:22:00,44.0,39.0,30.19,WSW,244,0.0,0.0,83,0.00,,,0.00,,2013-01-30 05:22:00,
2013-01-29 21:31:00,44.0,39.0,30.19,WSW,244,0.0,1.0,84,0.00,,,0.00,,2013-01-30 05:31:00,
2013-01-29 21:42:00,44.0,39.0,30.19,WSW,244,0.0,1.0,84,0.00,,,0.00,,2013-01-30 05:42:00,
2013-01-29 21:52:00,43.0,38.0,30.19,WSW,244,0.0,0.0,84,0.00,,,0.00,,2013-01-30 05:52:00,
2013-01-29 22:02:00,43.0,38.0,30.20,WSW,244,0.0,0.0,84,0.00,,,0.00,,2013-01-30 06:02:00,
2013-01-29 22:11:00,43.0,38.0,30.20,WSW,244,0.0,0.0,84,0.00,,,0.00,,2013-01-30 06:11:00,
2013-01-29 22:21:00,43.0,39.0,30.20,WSW,244,0.0,0.0,85,0.00,,,0.00,,2013-01-30 06:21:00,
2013-01-29 22:31:00,42.0,38.0,30.20,WSW,244,0.0,0.0,85,0.00,,,0.00,,2013-01-30 06:31:00,
2013-01-29 22:41:00,42.0,38.0,30.20,WSW,244,0.0,0.0,85,0.00,,,0.00,,2013-01-30 06:41:00,
2013-01-29 22:52:00,42.0,38.0,30.20,WSW,244,0.0,0.0,85,0.00,,,0.00,,2013-01-30 06:52:00,
2013-01-29 23:01:00,42.0,38.0,30.21,WSW,244,0.0,0.0,85,0.00,,,0.00,,2013-01-30 07:01:00,
2013-01-29 23:11:00,42.0,38.0,30.21,WSW,244,0.0,0.0,85,0.00,,,0.00,,2013-01-30 07:11:00,
2013-01-29 23:21:00,42.0,38.0,30.21,WSW,244,0.0,0.0,85,0.00,,,0.00,,2013-01-30 07:21:00,
2013-01-29 23:31:00,41.0,37.0,30.21,WSW,244,0.0,0.0,86,0.00,,,0.00,,2013-01-30 07:31:00,
2013-01-29 23:41:00,41.0,37.0,30.21,WSW,244,0.0,0.0,86,0.00,,,0.00,,2013-01-30 07:41:00,
2013-01-29 23:52:00,41.0,37.0,30.21,WSW,244,0.0,0.0,86,0.00,,,0.00,,2013-01-30 07:52:00,